World > North America > United States > Ohio

Sugarcreek, Ohio Regional Weather

Lat: 40.51N, Lon: 81.64W
Wx Zone: OHZ039Web Search
Sugarcreek Weather Warning NWS WEATHER ALERT FOR THE SUGARCREEK, OH AREA - Issued: 817 AM EDT Sun May 9 2021 Sugarcreek Weather Warning  

Ads allow us to feed your daily addiction for the world's greatest weather information. We're determined to offer quality sponsors, in the least annoying way possible.

Feedback


°F Click to change Sugarcreek hourly weather to Imperial units.Click to change Sugarcreek hourly weather to Metric units. °C
Sugarcreek Weather Map
UTC Time: 5/9/2021, 17:32
Your Time:

Sugarcreek, OH Regional Weather

Expires:202105091800;;849055
ASUS41 KCLE 091712
RWRCLE
OHIO REGIONAL WEATHER ROUNDUP
NATIONAL WEATHER SERVICE WILMINGTON, OH
100 PM EDT SUN MAY 09 2021

NOTE: "FAIR" INDICATES FEW OR NO CLOUDS BELOW 12,000 FEET WITH NO
SIGNIFICANT WEATHER AND/OR OBSTRUCTIONS TO VISIBILITY.


OHZ036-037-039>041-045>050-054>059-063>069-073>076-082>088-091800-
  CENTRAL AND SOUTHEAST OHIO
  
CITY           SKY/WX    TMP DP  RH WIND       PRES   REMARKS
COLUMBUS       RAIN      45  43  93 E12G20    29.71F FOG              
OSU AIRPORT    RAIN      45  42  89 E13G22    29.69F FOG              
BOLTON FIELD   LGT RAIN  45  43  93 E10G17    29.71F                  
RICKENBACK AFB RAIN      44  43  97 E15       29.70F                  
NEWARK         HVY RAIN  45  42  89 E9        29.74F FOG              
MARION         RAIN      42  39  89 E16       29.72F FOG              
LANCASTER      RAIN      45  43  93 SE9       29.74F FOG              
ZANESVILLE     RAIN      44  43  96 E9        29.78F FOG              
NEW PHILLY     RAIN      42  41  96 E8        29.84F FOG              
$$
  

SKY/WX - Weather  TMP - Temperature  DP - Dew Point  RH - Relative Humidity
WIND - Wind Direction/Speed PRES - Barometric Pressure VSB - Visibility
WCI - Wind Chill Index E13G22 Wind - East Wind 13 mph/Gusts of 22 mph